Terminal Aerodrome Forecast
Issued by NWS

Home | Current Version | Previous Version | Graphics & Text | Print | Product List | Glossary On
Versions: 1 2 3 4 5 6 7 8 9 10 11 12 13 14 15 16 17 18 19 20 21 22 23 24 25 26 27 28 29 30 31 32 33
000
FTUS43 KABR 240500
TAFATY
TAF
KATY 240523Z 2406/2506 15015KT P6SM BKN150
     FM241200 15015KT P6SM OVC025
     FM241700 15017G25KT P6SM VCSH OVC015=

USA.gov is the U.S. government's official web portal to all federal, state and local government web resources and services.